User: anonymous   Login
Location: Newark
(33.9035°S, 18.4112°E)
Time: 12:36:24
(UTC+00:00)
Language:

STARLINK-1077 - Orbit

View from above orbital plane
View from above orbital plane
View from above satellite
View from above satellite

Ground track
Ground track

The orbit data is extracted from the following two-line orbital elements,

1 44960U 20001AY  20099.25001157 -.00034401  00000-0 -37103-3 0  9998
2 44960  53.0020 300.3036 0001380  61.6409 250.1132 15.62781097 14496
Epoch (UTC): 08 April 2020 06:00:01
Eccentricity: 0.0001380
inclination: 53.0020°
perigee height: 379 km
apogee height: 380 km
right ascension of ascending node: 300.3036°
argument of perigee: 61.6409°
revolutions per day: 15.62781097
mean anomaly at epoch: 250.1132°
orbit number at epoch: 1449

The dashed part of the orbit path shows where the satellite is in the earth's shadow,  

DLR